Location: La B�doule
(43.2468°N, 5.5934°E)
Time: 22:58:58
(UTC+00:00)

ADEOS II - Pass Details

Date: 07 June 2020
Orbit: 800 x 801 km, 98.5° (Epoch: 05 July)

Event Time Altitude Azimuth Distance (km) Brightness Sun altitude
Rises 01:04:14 0° 25° (NNE) 3,317 6.9 -21.0°
Reaches altitude 10° 01:06:59 10° 39° (NE) 2,382 5.6 -20.8°
Maximum altitude 01:11:18 25° 94° (E) 1,561 3.8 -20.5°
Enters shadow 01:14:40 14° 142° (SE) 2,101 4.0 -20.2°
